Temperature
20 19 19 20 20 20 20 20 20 20 20 20 20 20 20 20 20 20 20 20 20 20 20 20 20 20 20 20 20 19 19 19 19 19 19 19 18 18 18 18 19 19 18
20 20 20 20 20 20 20 20 20 20 20 20 20 20 20 20 20 20 20 20 20 20 20 19 19 19 19 19 19 19 19 19 19 19 19 19 19 18 19 18 18 18 18
20 20 20 20 20 20 20 20 20 20 20 20 20 20 20 20 20 20 20 19 19 19 19 19 19 19 19 19 19 19 19 19 19 19 19 19 19 19 19 18 18 18 18
20 20 20 20 20 20 20 20 20 20 20 20 20 20 20 19 19 19 19 19 19 19 19 19 19 19 19 19 19 19 19 19 19 19 19 19 19 19 18 18 18 18 18
20 20 20 20 20 20 20 20 20 20 20 20 19 19 19 19 19 19 19 19 19 19 19 19 19 19 19 19 19 19 19 19 19 19 19 19 19 18 18 18 18 18 18
20 20 20 19 19 19 19 19 19 19 19 19 19 19 19 19 19 19 19 19 19 19 19 19 19 19 19 18 18 18 18 18 18 18 19 19 18 18 18 18 18 18 18
19 19 19 19 19 19 19 19 19 19 19 19 19 19 19 19 19 19 19 19 19 19 19 19 19 18 18 18 18 18 18 18 18 18 18 18 18 18 18 18 18 18 18
18 18 18 18 18 19 19 19 19 19 19 19 19 19 19 19 19 19 19 19 19 19 19 19 19 18 18 18 18 18 18 18 18 18 18 18 18 18 18 18 18 18 18
18 18 18 18 18 18 18 18 19 19 19 19 19 19 19 19 19 19 19 19 19 19 19 19 19 18 18 18 18 18 18 18 18 18 18 18 18 18 18 18 18 18 18
18 18 18 18 18 18 18 18 18 18 18 18 19 19 19 19 19 19 19 19 19 19 19 19 19 18 18 18 18 18 18 18 18 18 18 18 18 18 18 18 18 18 18
17 17 17 17 18 18 18 18 18 18 18 18 18 18 18 18 18 18 18 19 19 19 19 18 18 18 18 18 18 18 18 18 18 18 18 18 18 18 18 18 18 18 18
17 17 17 17 17 17 17 18 18 18 18 18 18 18 18 18 18 18 18 18 18 18 18 18 18 18 18 18 18 18 18 18 18 18 18 18 18 18 18 18 18 18 18
16 16 16 17 17 17 17 17 17 17 18 18 18 18 18 18 18 18 18 18 18 18 18 18 18 18 18 18 18 18 18 18 18 18 18 18 18 18 18 18 18 18 18
16 16 16 16 16 16 16 17 17 17 17 17 17 17 17 17 18 18 18 18 18 18 18 18 18 18 18 18 18 18 18 18 18 18 18 18 18 17 17 18 18 18 17
16 16 16 16 16 16 16 16 16 16 16 17 17 17 17 17 17 17 18 18 18 18 18 18 18 18 18 18 18 18 18 18 18 18 18 18 17 17 17 17 17 17 17
15 15 15 15 15 15 15 15 15 16 16 16 16 17 17 17 17 17 17 18 18 18 18 18 18 18 18 18 18 18 18 18 18 18 18 18 18 17 17 17 17 17 17
14 14 14 14 14 15 15 15 15 15 15 16 16 16 16 17 17 17 17 17 17 17 17 17 17 17 18 18 18 18 18 18 18 18 18 18 18 18 17 17 17 17 17
14 14 14 14 14 14 14 14 14 14 15 15 15 16 16 16 16 17 17 17 17 17 17 17 17 17 18 18 18 18 18 18 18 18 18 18 18 18 17 17 17 17 17
13 13 13 13 13 13 14 14 14 14 14 15 15 15 15 16 16 16 17 17 17 17 17 17 17 17 17 18 18 18 18 18 18 18 18 18 18 18 17 17 17 17 17
13 13 13 13 13 13 13 13 14 14 14 14 14 14 15 15 16 16 16 16 17 17 17 17 17 17 17 17 17 18 18 18 18 18 18 18 18 18 17 17 17 17 17
13 13 13 13 13 13 13 13 13 14 14 14 14 14 14 15 15 15 16 16 16 16 17 17 17 17 17 17 17 17 18 18 18 18 18 18 18 18 18 17 17 17 17
13 13 13 12 12 12 12 13 13 13 13 13 13 13 14 14 14 15 15 15 16 16 16 16 16 16 17 16 16 16 17 17 18 18 18 18 18 18 18 17 17 17 17
13 13 12 12 12 12 12 12 13 13 13 13 13 13 13 13 14 14 15 15 15 15 16 16 16 16 16 16 16 16 16 16 17 18 18 18 18 18 18 18 17 17 17
13 12 12 12 12 12 12 12 12 12 12 12 12 13 13 13 13 14 14 15 15 15 15 16 16 16 16 16 16 16 16 16 17 17 17 18 18 18 18 18 17 17 17
13 12 12 12 12 12 12 12 12 12 12 12 12 12 13 13 13 13 14 14 14 15 15 15 15 15 16 16 16 16 15 16 16 16 17 17 17 18 18 18 17 17 17
13 13 12 12 12 12 11 11 11 12 12 12 12 12 12 12 13 13 13 14 14 14 15 15 15 15 15 15 15 16 16 16 16 16 16 17 17 18 18 17 17 17 17
Wind_Speed
4 5 9 11 11 11 11 11 12 12 12 12 13 12 12 11 11 10 9 8 7 7 6 6 6 7 7 8 8 8 9 9 10 9 10 9 9 8 9 9 8 8 9
6 8 10 10 11 11 10 10 11 11 11 11 11 11 11 10 10 9 9 8 7 6 6 6 6 6 6 7 7 7 7 8 8 8 9 8 8 8 8 8 7 7 8
6 8 10 10 10 10 10 10 10 10 10 10 10 10 10 9 9 9 8 7 7 6 5 5 5 5 5 5 6 6 6 6 7 8 7 6 6 8 8 7 8 8 8
7 8 9 10 10 10 10 9 9 9 9 9 9 9 9 9 8 8 8 7 6 6 5 5 4 4 4 4 4 4 4 5 7 7 6 5 5 7 7 7 7 7 7
6 7 8 10 10 10 10 9 9 9 9 9 9 9 9 9 8 8 8 7 7 6 5 4 4 4 4 4 3 3 4 5 6 7 6 5 5 6 7 6 7 7 7
3 5 7 9 10 10 10 10 10 10 10 9 9 9 9 9 8 8 8 7 7 6 5 5 4 4 3 3 3 2 3 5 6 6 6 5 4 6 7 6 6 7 7
2 1 4 7 8 9 10 10 10 10 10 10 10 10 9 9 9 9 8 8 7 7 6 6 5 4 4 3 3 2 3 5 6 5 5 4 3 5 6 6 6 6 7
5 4 4 4 6 8 9 10 11 11 11 11 11 11 10 10 10 9 9 8 8 8 7 6 6 5 5 4 3 3 3 5 5 4 4 4 4 5 6 6 6 7 6
8 7 7 8 6 6 7 9 11 11 11 12 12 12 11 11 11 10 10 10 9 8 8 7 7 6 6 5 4 4 3 4 5 4 5 4 5 5 6 6 6 6 7
6 6 6 7 9 9 9 9 10 11 12 12 12 12 12 12 12 12 11 11 10 10 9 8 8 8 7 6 5 4 3 4 4 5 5 5 6 6 6 6 6 6 7
8 7 6 7 8 9 9 9 10 9 10 11 11 11 11 11 11 11 12 11 12 11 10 10 9 9 8 6 6 4 3 3 4 5 6 6 6 6 6 6 6 7 7
7 6 5 5 6 8 7 8 8 8 8 8 8 9 9 9 10 11 11 13 13 13 12 11 10 9 8 5 4 3 2 4 4 5 6 8 8 7 7 7 6 7 7
5 6 6 5 6 6 5 6 6 6 6 7 7 8 7 7 8 8 8 9 11 12 10 10 10 8 6 5 4 3 3 4 5 6 7 8 9 8 8 8 7 7 7
7 7 7 5 5 6 6 5 5 5 5 5 6 7 5 4 4 5 6 7 8 8 7 8 6 7 6 6 6 5 5 5 6 7 8 9 9 9 9 8 8 8 7
7 8 8 6 5 5 5 4 4 4 5 6 6 7 6 4 4 4 5 7 8 9 7 6 6 6 5 6 6 6 6 7 8 8 9 10 11 10 10 10 9 9 8
7 8 7 7 6 5 4 4 4 5 6 6 5 6 7 6 5 4 5 5 6 8 8 7 6 5 5 4 5 6 7 8 9 10 10 11 12 12 11 11 11 11 10
6 7 8 7 6 6 6 5 5 6 6 5 6 7 8 7 6 5 5 6 6 8 8 5 5 5 4 5 6 6 6 7 8 10 10 10 10 12 12 12 12 12 11
7 7 8 8 8 7 6 5 5 6 6 5 7 7 8 8 8 5 5 5 6 6 5 5 5 5 5 5 4 4 4 5 7 9 10 10 10 10 12 13 13 12 12
7 7 8 8 8 8 7 6 6 6 5 6 6 6 7 8 7 5 5 5 6 5 5 6 5 5 4 5 4 4 4 4 5 7 7 10 11 11 11 12 13 13 13
6 6 7 8 8 8 6 5 4 4 4 5 5 6 7 7 7 5 4 5 5 5 6 6 6 5 4 4 4 3 2 3 4 6 7 8 10 11 11 11 11 12 13
7 7 7 8 8 7 5 5 5 5 5 5 4 6 7 7 7 5 5 5 5 6 7 7 5 6 5 4 2 1 1 2 3 4 5 5 7 10 11 12 11 11 11
7 7 7 8 8 7 5 4 4 5 4 4 4 6 8 7 7 5 5 5 5 5 6 7 6 5 5 5 4 2 1 1 2 4 4 6 7 7 8 11 12 12 11
7 7 7 8 8 7 7 5 5 4 4 4 5 5 6 8 7 6 6 5 5 6 6 7 8 8 6 6 5 4 4 5 2 2 5 5 6 6 7 8 11 13 13
7 7 7 7 7 7 7 6 6 5 5 5 5 6 8 7 6 6 5 6 6 6 7 7 7 7 7 6 5 4 3 3 4 3 1 3 5 7 8 7 9 12 14
6 6 6 7 7 7 7 6 6 6 5 6 6 7 7 6 6 5 5 4 5 5 7 7 6 7 7 7 6 5 4 2 2 3 3 3 2 4 6 7 6 9 13
6 5 6 6 6 7 7 6 6 7 8 8 9 8 7 6 5 6 5 4 4 4 6 7 7 8 8 7 6 6 6 5 5 4 3 3 3 3 3 5 6 7 11
Wind_Direction
189 191 173 159 159 158 156 152 149 145 142 140 139 139 140 141 141 141 140 138 134 128 125 121 116 109 106 101 98 96 95 95 95 93 93 93 97 104 105 103 100 99 102
159 173 172 165 164 165 165 161 158 155 153 151 149 148 149 149 149 149 148 146 143 139 136 133 127 120 116 110 105 101 100 101 102 98 93 90 97 107 107 109 108 108 105
143 162 169 170 170 170 171 169 168 167 165 164 162 161 159 158 157 157 156 154 152 150 148 145 140 133 126 119 112 106 105 108 111 109 98 87 97 109 111 114 114 112 109
148 156 168 176 176 177 180 180 180 178 178 178 177 175 173 169 167 167 166 165 164 162 160 158 156 152 142 132 121 110 108 114 119 119 106 94 100 115 117 118 117 119 115
149 158 174 181 182 183 187 189 190 190 189 188 188 188 186 182 179 178 177 177 177 175 174 173 173 170 162 148 134 117 112 122 124 123 118 106 103 121 121 119 118 118 118
139 163 187 188 189 190 192 194 195 197 196 196 197 198 196 192 191 190 188 188 189 188 188 189 191 190 185 175 157 135 126 126 124 126 128 124 121 127 123 121 120 122 124
83 154 221 210 205 204 203 204 204 203 203 204 205 205 203 201 201 200 199 200 199 200 200 201 205 208 209 205 194 173 152 142 139 142 145 145 151 137 128 126 122 123 122
43 27 353 287 241 229 223 221 217 215 213 213 213 213 212 211 210 209 209 209 207 207 205 207 212 218 223 226 220 203 181 164 153 161 170 175 172 149 138 131 126 127 123
35 30 13 357 341 304 265 246 236 230 226 224 222 220 219 219 218 217 216 216 213 212 212 213 218 224 230 233 233 223 206 176 162 182 190 193 184 167 152 142 134 129 125
31 23 9 357 357 347 330 299 272 255 244 238 235 231 229 228 227 225 223 224 221 219 220 220 222 228 233 236 240 236 218 179 178 200 207 209 201 182 167 155 146 136 128
25 14 5 357 354 347 336 331 321 298 275 262 251 244 239 236 235 235 232 230 229 228 227 226 225 228 232 237 241 238 208 187 201 214 221 225 215 195 177 167 158 148 136
9 0 360 346 345 346 343 338 331 321 311 294 272 256 245 234 234 238 239 239 237 234 233 231 227 228 229 224 236 236 192 204 216 229 230 231 223 204 188 180 171 159 149
354 352 347 339 336 336 332 332 327 322 319 316 307 288 265 245 238 239 236 246 248 243 235 232 229 220 208 202 207 209 206 216 232 238 238 237 229 211 197 188 183 174 164
1 353 349 343 337 331 331 327 322 325 323 316 305 292 276 257 242 234 229 230 234 237 228 220 209 206 203 205 208 213 217 221 234 240 241 239 233 218 206 194 190 185 177
0 349 343 345 342 331 327 321 323 314 309 306 306 301 275 254 249 242 238 232 227 225 220 211 203 199 202 205 209 215 220 225 233 237 238 239 235 225 213 201 197 193 189
350 342 336 340 346 340 327 312 303 302 303 300 295 296 290 269 250 242 242 232 230 224 217 208 199 196 201 203 210 214 219 223 229 231 232 236 236 227 217 210 204 199 195
339 336 336 337 350 339 328 316 313 304 305 298 293 294 289 277 263 247 243 236 232 226 214 201 199 196 204 209 216 215 214 217 220 223 222 223 227 223 215 213 209 202 199
339 336 334 342 340 335 328 315 310 307 303 295 293 291 288 282 269 256 250 245 234 221 210 202 197 199 208 209 214 217 215 212 218 218 215 213 213 214 214 215 212 206 204
335 333 333 337 337 334 327 317 310 308 302 299 298 292 288 285 277 255 245 244 234 218 212 212 201 198 205 210 218 221 218 218 216 213 206 207 206 205 206 213 213 209 207
327 331 332 337 339 335 328 323 315 314 309 306 302 297 296 292 285 268 251 243 230 221 218 213 205 199 202 203 229 235 220 228 212 207 206 203 203 203 203 206 210 211 209
334 337 336 339 339 344 342 337 328 322 316 314 308 310 308 301 293 273 261 248 230 226 222 213 205 206 206 176 166 280 310 232 214 214 203 193 199 203 200 203 204 204 209
327 330 333 336 335 340 336 320 301 299 300 297 303 314 312 309 301 287 259 248 236 232 227 215 202 198 200 179 165 146 227 289 255 217 198 201 204 195 200 205 203 203 202
324 326 329 328 331 335 337 333 330 325 318 327 328 323 315 312 303 289 270 255 242 230 229 221 209 201 205 194 183 165 171 206 216 225 211 203 195 195 203 199 203 205 203
313 320 323 326 331 336 343 350 351 345 334 320 317 309 311 309 305 298 280 260 247 237 234 228 218 209 201 199 196 198 179 156 163 196 232 203 199 202 202 203 203 206 204
313 323 326 333 335 338 344 347 346 339 325 319 320 322 325 321 316 314 298 276 256 243 237 231 224 215 208 200 188 181 179 175 166 165 188 195 204 213 204 201 196 201 203
318 325 334 339 333 337 343 346 347 339 334 337 339 339 335 329 323 327 317 296 278 261 246 235 225 219 216 208 199 187 177 173 184 174 171 178 195 207 200 199 198 198 201
Height
1540 1541 1543 1545 1547 1548 1550 1551 1553 1554 1555 1555 1556 1557 1557 1558 1558 1559 1560 1560 1560 1561 1561 1561 1561 1561 1561 1561 1561 1561 1560 1560 1560 1560 1560 1560 1560 1560 1560 1560 1560 1560 1560
1541 1542 1544 1546 1547 1549 1551 1552 1553 1554 1555 1556 1556 1557 1558 1558 1559 1559 1560 1560 1560 1561 1561 1561 1561 1561 1561 1561 1561 1562 1562 1561 1561 1561 1561 1561 1561 1561 1561 1561 1561 1561 1561
1542 1543 1545 1547 1548 1550 1551 1552 1553 1554 1555 1555 1556 1557 1557 1558 1558 1559 1559 1560 1560 1560 1561 1561 1561 1561 1562 1562 1562 1562 1562 1562 1562 1562 1562 1562 1561 1561 1561 1562 1562 1562 1562
1543 1545 1546 1547 1549 1550 1551 1552 1553 1554 1554 1555 1556 1556 1557 1557 1558 1558 1559 1559 1559 1560 1560 1561 1561 1561 1562 1562 1562 1563 1563 1563 1563 1563 1563 1562 1562 1562 1562 1562 1563 1563 1563
1544 1546 1547 1548 1549 1550 1551 1552 1553 1553 1554 1554 1555 1556 1556 1557 1557 1557 1558 1558 1559 1559 1560 1560 1561 1561 1562 1562 1563 1563 1563 1564 1564 1563 1563 1563 1563 1563 1563 1563 1563 1563 1564
1546 1547 1548 1549 1550 1551 1551 1552 1552 1553 1553 1553 1554 1555 1555 1556 1556 1556 1557 1557 1558 1558 1559 1559 1560 1561 1561 1562 1562 1563 1563 1564 1564 1564 1564 1564 1563 1563 1563 1563 1564 1564 1564
1547 1548 1549 1549 1550 1551 1551 1551 1552 1552 1552 1553 1553 1553 1554 1554 1555 1555 1556 1556 1556 1557 1558 1558 1559 1560 1561 1561 1562 1563 1563 1564 1564 1564 1564 1564 1564 1564 1564 1564 1564 1565 1565
1548 1548 1548 1549 1549 1550 1550 1550 1551 1551 1551 1551 1552 1552 1552 1553 1553 1554 1554 1555 1555 1556 1556 1557 1558 1559 1560 1560 1561 1562 1563 1563 1564 1564 1564 1564 1564 1564 1564 1564 1565 1565 1565
1548 1548 1548 1548 1548 1548 1549 1549 1549 1549 1549 1550 1550 1550 1551 1551 1552 1552 1553 1553 1554 1554 1555 1555 1556 1557 1558 1559 1560 1561 1562 1563 1563 1564 1564 1564 1564 1564 1564 1565 1565 1565 1566
1548 1548 1547 1547 1547 1547 1547 1547 1547 1547 1547 1548 1548 1548 1549 1549 1550 1550 1551 1551 1552 1553 1553 1554 1554 1555 1556 1557 1558 1559 1560 1561 1563 1563 1564 1564 1564 1564 1564 1565 1565 1566 1566
1548 1547 1546 1546 1545 1545 1545 1544 1544 1544 1545 1545 1545 1546 1546 1546 1547 1548 1549 1549 1550 1551 1551 1552 1552 1553 1554 1555 1556 1558 1559 1560 1562 1563 1564 1564 1564 1564 1564 1565 1565 1566 1566
1548 1547 1546 1545 1544 1543 1543 1542 1542 1541 1542 1542 1542 1543 1543 1544 1544 1545 1546 1547 1548 1548 1549 1550 1550 1551 1552 1553 1554 1556 1557 1559 1560 1562 1563 1563 1564 1564 1564 1564 1565 1566 1567
1548 1547 1546 1544 1543 1541 1540 1540 1539 1539 1538 1538 1539 1539 1540 1541 1541 1542 1543 1544 1545 1546 1547 1548 1548 1549 1550 1551 1552 1554 1555 1557 1559 1560 1562 1563 1563 1563 1563 1564 1564 1565 1566
1548 1547 1545 1543 1542 1540 1539 1537 1536 1536 1535 1535 1535 1536 1536 1537 1538 1539 1540 1541 1542 1543 1544 1545 1546 1547 1548 1549 1550 1551 1553 1555 1557 1559 1560 1561 1562 1562 1562 1563 1564 1565 1566
1548 1546 1544 1542 1540 1538 1537 1535 1534 1533 1532 1532 1531 1532 1532 1533 1534 1535 1536 1537 1538 1540 1541 1542 1543 1544 1545 1546 1548 1549 1551 1553 1555 1557 1558 1560 1561 1561 1562 1562 1563 1564 1565
1546 1544 1542 1540 1537 1535 1534 1532 1531 1530 1530 1529 1528 1528 1529 1529 1530 1530 1531 1533 1534 1536 1537 1538 1540 1541 1542 1544 1545 1547 1549 1551 1553 1555 1557 1558 1559 1560 1560 1561 1562 1563 1564
1544 1542 1539 1537 1534 1532 1530 1529 1527 1527 1526 1525 1525 1524 1524 1525 1525 1526 1527 1528 1530 1532 1533 1535 1536 1537 1539 1541 1542 1544 1546 1548 1550 1553 1555 1556 1557 1558 1559 1560 1560 1562 1563
1543 1540 1537 1534 1531 1529 1527 1525 1524 1522 1521 1521 1521 1521 1520 1520 1521 1522 1523 1524 1526 1527 1529 1530 1532 1534 1535 1537 1539 1541 1543 1546 1548 1550 1552 1554 1556 1557 1558 1558 1559 1560 1562
1541 1538 1535 1532 1529 1526 1524 1522 1520 1518 1517 1517 1516 1516 1516 1516 1516 1517 1518 1519 1521 1522 1524 1525 1527 1529 1531 1533 1536 1538 1540 1542 1545 1547 1549 1551 1553 1555 1556 1557 1558 1559 1560
1541 1537 1534 1530 1527 1524 1522 1519 1517 1516 1514 1513 1512 1512 1512 1512 1512 1512 1513 1515 1516 1517 1519 1521 1522 1524 1526 1529 1532 1533 1536 1538 1541 1543 1546 1548 1550 1552 1554 1555 1556 1557 1559
1540 1536 1533 1529 1526 1523 1520 1517 1515 1513 1511 1510 1509 1508 1507 1507 1507 1507 1508 1509 1511 1512 1514 1516 1518 1520 1521 1524 1527 1529 1531 1534 1536 1539 1542 1545 1547 1549 1551 1553 1555 1556 1557
1539 1536 1532 1529 1526 1522 1519 1516 1513 1511 1509 1507 1506 1504 1503 1503 1503 1503 1503 1504 1505 1507 1509 1510 1512 1514 1516 1519 1522 1524 1526 1530 1531 1534 1537 1540 1543 1546 1548 1550 1552 1554 1555
1538 1535 1532 1529 1525 1522 1519 1516 1513 1510 1507 1505 1503 1501 1500 1499 1499 1498 1499 1499 1500 1502 1503 1505 1507 1509 1511 1513 1516 1519 1521 1523 1526 1529 1532 1535 1539 1542 1544 1547 1549 1551 1553
1538 1535 1532 1528 1525 1522 1518 1515 1512 1509 1506 1503 1501 1499 1497 1496 1495 1494 1494 1495 1495 1496 1498 1500 1502 1503 1506 1508 1510 1513 1516 1518 1521 1523 1527 1530 1533 1537 1540 1543 1546 1548 1550
1538 1535 1532 1528 1525 1522 1518 1515 1512 1509 1506 1503 1500 1497 1495 1493 1492 1491 1490 1490 1491 1492 1493 1495 1496 1498 1500 1502 1504 1506 1510 1513 1516 1519 1521 1524 1528 1531 1535 1538 1541 1544 1547
1537 1534 1531 1528 1525 1522 1518 1515 1512 1509 1506 1503 1499 1496 1494 1491 1490 1488 1487 1487 1487 1487 1488 1490 1491 1493 1495 1497 1499 1501 1503 1507 1510 1513 1516 1518 1522 1526 1529 1533 1536 1539 1543